Regional Weather Roundup
Issued by NWS

Home | Current Version | Previous Version | Text Only | Print | Product List | Glossary Off
Versions: 1 2 3 4 5 6 7 8 9 10 11 12 13 14 15 16 17 18 19 20 21 22 23 24 25 26 27 28 29 30 31 32 33 34 35 36 37 38 39 40 41 42 43 44 45 46 47 48 49 50

000
ASUS43 KOAX 020702
RWRNE

WEATHER ROUNDUP FOR NEBRASKA
NATIONAL WEATHER SERVICE OMAHA NE
200 AM CDT WED SEP 02 2015

NOTES: SATELLITE DATA IS BEING USED TO AUGMENT CLOUD COVER ABOVE
       12000 FEET.
       "FAIR" INDICATES FEW OR NO CLOUDS BELOW 12,000 FEET WITH NO
       SIGNIFICANT WEATHER AND/OR OBSTRUCTIONS TO VISIBILITY.

  * THESE STATIONS DO NOT REPORT WEATHER SUCH AS RAIN...SNOW OR FOG.

NEZ001>004-019>022-054>056-020800-
NEBRASKA PANHANDLE

CITY           SKY/WX    TMP DP  RH WIND       PRES   REMARKS
SCOTTSBLUFF    CLEAR     59  50  72 W3        29.95R
ALLIANCE       CLEAR     61  48  62 S10       29.93S
CHADRON        PTCLDY    55  46  71 SW3       29.89S
KIMBALL        CLEAR     62  45  53 SW9       30.03R
SIDNEY         CLEAR     68  42  38 SW12      30.00F
$$

NEZ057>060-069>072-079>082-020800-
SOUTHWEST NEBRASKA

CITY           SKY/WX    TMP DP  RH WIND       PRES   REMARKS
NORTH PLATTE   CLEAR     65  60  84 E3        29.91S
IMPERIAL       CLEAR     67  57  70 CALM      29.94F
LEXINGTON      CLEAR     70  64  81 CALM      29.90S
MC COOK        CLEAR     70  58  65 CALM      29.91S
OGALLALA       CLEAR     69  56  63 W5        29.94S
$$

NEZ005>010-023>029-035>040-094-020800-
NORTH CENTRAL NEBRASKA

CITY           SKY/WX    TMP DP  RH WIND       PRES   REMARKS
VALENTINE      CLEAR     69  61  75 SW7       29.85F
BROKEN BOW     CLEAR     64  61  90 CALM      29.90S
O`NEILL        CLEAR     69  66  90 S6        29.87S
ORD            CLEAR     64  62  93 CALM      29.86F
THEDFORD       CLEAR     69  63  80 S8        29.91S
$$

NEZ041-046>049-061>064-073>077-083>087-020800-
SOUTH CENTRAL NEBRASKA

CITY           SKY/WX    TMP DP  RH WIND       PRES   REMARKS
GRAND ISLAND   CLEAR     75  64  68 S14       29.89F
AURORA         CLEAR     74  66  77 S8        29.90S
HASTINGS       CLEAR     75  64  68 S7        29.90F
HEBRON         CLEAR     74  64  70 S9        29.91F
HOLDREGE       CLEAR     71  60  67 S8        29.91S
KEARNEY *      CLEAR     72  61  68 S9        29.90S
YORK           CLEAR     73  66  78 S9        29.90F
$$

NEZ011>018-030>034-042>045-020800-
NORTHEAST NEBRASKA

CITY           SKY/WX    TMP DP  RH WIND       PRES   REMARKS
NORFOLK        CLEAR     69  65  86 E5        29.87S
ALBION         CLEAR     72  64  76 SE3       29.88F
BLAIR          FAIR      74  65  74 S14       29.90F
COLUMBUS *     CLEAR     73  63  68 S6        29.88F
FREMONT        CLEAR     76  65  70 S10       29.89S
TEKAMAH        CLEAR     73  68  84 S7        29.88F
$$

NEZ050>053-065>068-078-088>093-020800-
SOUTHEAST NEBRASKA

CITY           SKY/WX    TMP DP  RH WIND       PRES   REMARKS
LINCOLN        CLEAR     76  68  76 S10       29.90F
OMAHA EPPLEY   PTCLDY    76  68  76 SE15      29.90F
BEATRICE       PTCLDY    75  68  77 S10       29.92F
FALLS CITY     LGT RAIN  73  69  87 S9        29.95S
NEBRASKA CITY  LGT RAIN  75  65  70 S15       29.93F
PLATTSMOUTH    PTCLDY    75  65  73 S14       29.91F
$$

NEZ044-045-051>053-067-020800-
OMAHA AREA

CITY           SKY/WX    TMP DP  RH WIND       PRES   REMARKS
EPPLEY FIELD   PTCLDY    76  68  76 SE15      29.90F
BLAIR          CLEAR     74  65  74 S14       29.90F
FREMONT        CLEAR     76  65  70 S10       29.89S
MILLARD        CLEAR     75  68  79 SE6       29.90F
OFFUTT AFB     CLEAR     74  68  82 SE12      29.90F
PLATTSMOUTH    PTCLDY    75  65  73 S14       29.91F
WAHOO          FAIR      69  66  90 S7        29.89F
$$


USA.gov is the U.S. government's official web portal to all federal, state and local government web resources and services.